GEFSSE_con_maxscp_186.txt.gz
SCP
0 1 1 1 1 1 1 1 1 1 1 2 2 1 1 1 1 1 1 1 1 1 1 1 1 1 1 1 1 1 1 1 1 1 0 0 0 1 1 1 1 1 1
0 1 1 1 1 1 1 1 2 2 2 2 2 2 2 2 1 1 1 1 1 1 1 1 1 1 1 1 1 1 1 1 1 1 1 1 1 1 1 1 1 1 1
1 1 1 1 1 1 1 2 2 2 2 2 2 2 2 2 2 1 1 1 1 1 1 1 1 1 1 1 1 1 1 1 1 1 1 1 1 1 1 1 1 1 1
1 1 1 1 1 1 2 2 2 2 2 1 1 2 2 2 2 1 1 1 1 1 1 1 1 1 1 1 1 1 1 1 1 1 1 1 1 1 1 1 1 1 1
1 1 1 1 2 2 2 2 2 2 1 1 1 2 2 2 2 1 1 1 1 1 1 1 1 1 1 1 1 1 1 1 1 1 1 1 1 1 1 1 1 1 1
1 1 1 2 2 2 2 2 2 2 2 1 1 2 2 2 2 1 1 1 1 1 1 1 1 1 1 1 1 1 1 1 1 1 1 1 1 1 1 1 1 1 1
1 1 1 2 2 2 2 2 2 2 2 2 2 2 2 1 1 1 1 1 1 1 1 1 1 1 1 1 1 1 1 1 1 1 1 1 1 1 1 1 1 1 2
2 2 1 1 2 1 2 2 2 2 2 2 2 2 2 1 1 1 1 1 1 1 1 1 1 1 1 1 1 1 1 1 1 1 1 1 1 2 1 1 2 2 2
2 2 2 2 2 2 2 2 2 2 2 2 2 2 2 1 1 1 1 1 1 1 1 1 1 1 1 1 1 1 1 1 1 1 1 1 1 1 1 1 2 1 1
2 2 2 2 2 2 2 2 2 2 2 2 2 2 2 1 1 1 1 1 1 1 1 1 1 1 1 1 1 1 1 1 1 1 1 1 1 1 1 1 1 1 1
2 2 2 2 2 2 2 2 2 3 3 2 2 2 2 1 1 1 1 1 1 1 1 1 1 1 1 1 1 1 1 1 1 1 1 1 1 1 1 1 1 2 2
2 2 2 2 2 2 2 2 2 3 3 3 2 2 2 1 1 1 1 1 1 1 1 1 1 1 1 1 1 1 1 1 1 1 1 1 1 1 1 1 2 2 2
2 2 2 2 2 2 2 2 2 2 2 2 2 2 2 1 1 1 1 1 1 1 1 1 1 1 1 1 1 1 1 1 1 1 1 1 1 1 1 2 2 2 2
2 2 2 2 2 2 2 2 2 2 2 2 2 2 1 1 1 1 1 1 1 1 1 1 1 1 1 1 1 1 1 1 1 1 1 1 1 1 1 2 2 2 2
2 2 2 2 2 2 2 2 2 2 2 2 1 1 1 1 1 1 1 1 1 1 1 1 1 1 1 1 2 2 1 1 1 1 1 1 1 1 1 1 2 2 2
2 2 2 3 2 2 2 2 2 2 1 1 1 1 1 1 1 1 1 1 1 0 0 1 1 1 1 1 2 2 1 1 1 1 1 1 1 1 1 1 1 1 2
2 2 2 3 2 2 2 2 1 1 1 1 1 1 1 1 1 1 1 1 0 0 0 0 0 1 1 1 1 1 1 1 1 1 1 1 1 1 1 1 1 1 1
2 2 3 3 3 2 2 1 1 1 1 1 1 1 1 1 1 1 1 1 0 0 0 0 1 1 1 1 1 1 1 1 1 1 1 1 1 1 1 1 1 1 1
3 3 3 3 3 3 2 1 1 1 1 1 1 2 2 2 1 1 1 1 0 0 0 1 1 1 1 1 1 1 1 1 1 1 1 1 1 1 1 1 1 1 1
3 3 4 4 4 3 2 1 1 1 1 1 1 2 2 2 1 1 1 1 1 1 1 1 1 1 1 0 0 0 0 1 1 1 1 1 1 1 1 1 1 1 1
4 4 4 4 4 3 2 1 1 1 1 1 1 1 1 1 1 1 1 1 1 1 1 0 0 1 0 0 0 0 0 0 1 1 1 1 1 1 1 1 1 1 1
5 5 4 4 3 2 1 1 1 1 1 1 1 1 1 1 1 1 1 1 1 1 1 1 0 0 0 0 0 0 0 0 0 1 1 1 1 1 1 1 1 1 1
7 6 4 2 2 1 1 1 1 1 1 1 1 1 1 1 1 1 1 1 1 1 1 1 1 0 0 0 0 0 0 0 0 0 1 1 0 0 1 0 0 0 0
7 5 3 2 1 1 1 1 1 1 1 1 1 1 1 1 1 1 1 1 1 1 1 1 1 0 0 0 0 0 0 0 0 0 0 0 0 0 0 0 0 0 0
6 5 3 2 1 1 1 1 1 1 0 1 1 1 1 1 1 1 1 1 1 1 1 1 1 0 0 0 0 0 0 0 0 0 0 0 0 0 0 0 0 0 0
5 4 3 3 2 1 1 1 1 1 0 1 1 1 1 1 1 1 1 1 1 1 1 1 1 0 0 0 0 0 0 0 0 0 0 0 0 0 0 0 0 0 0

GEFSSE_con_maxscp_192.txt.gz
SCP
1 1 1 1 1 1 1 1 1 1 1 1 1 1 1 1 1 1 1 1 1 1 1 1 1 1 1 1 1 1 1 1 1 1 1 1 1 1 1 1 1 1 1
1 1 1 1 1 1 1 1 1 1 1 1 1 1 1 1 1 1 1 1 1 1 1 1 1 1 1 1 1 1 1 1 1 1 1 1 1 1 1 1 1 1 1
1 1 1 1 1 1 1 1 1 1 1 1 1 1 1 1 1 1 1 1 1 1 1 1 1 1 0 0 1 1 1 1 1 1 1 1 1 1 1 1 1 1 1
1 1 1 1 1 1 1 1 1 1 1 1 1 1 1 1 1 1 1 1 1 1 1 1 1 1 0 0 0 0 1 1 1 1 1 1 1 1 1 1 1 1 1
1 2 2 1 1 1 1 1 1 1 1 1 1 1 1 1 1 1 1 1 1 1 1 1 1 1 1 0 0 0 0 1 0 0 0 1 1 1 1 1 1 1 1
2 2 2 2 1 1 1 1 1 1 1 1 1 1 1 1 1 1 1 1 1 1 1 1 1 1 1 1 1 1 1 0 0 0 0 1 1 1 1 1 1 1 1
2 2 2 2 2 1 1 1 1 1 1 1 2 2 1 1 1 1 1 1 1 1 1 1 1 1 1 1 1 1 1 0 0 0 1 1 1 1 1 1 1 1 2
2 2 2 2 2 2 2 2 2 2 1 2 2 2 1 1 1 1 1 1 1 1 1 1 1 1 1 1 1 1 1 1 0 0 1 1 1 1 1 1 1 2 2
3 2 2 2 2 2 2 2 2 2 2 2 2 2 2 1 1 1 1 1 1 1 1 1 1 1 1 1 1 1 1 1 0 0 1 1 1 1 1 1 1 2 2
3 2 2 2 2 2 2 2 2 2 2 2 1 1 1 1 1 1 1 1 1 1 1 1 1 1 1 1 1 1 1 1 1 1 1 1 2 1 1 1 1 2 2
3 3 2 2 2 2 2 2 2 2 2 2 2 2 1 1 1 1 1 1 1 1 1 1 1 1 1 1 1 1 1 1 1 1 1 2 2 1 1 1 1 2 2
3 3 3 3 3 3 3 3 3 3 3 2 2 2 2 2 2 1 2 2 1 1 1 1 1 1 1 1 1 1 1 1 1 1 2 2 2 2 1 1 2 2 2
4 4 4 4 4 4 4 4 4 4 3 3 3 3 3 3 2 2 2 2 2 2 1 1 1 1 1 1 1 1 1 2 2 2 2 2 2 2 1 1 2 2 2
4 4 5 5 5 5 5 5 5 5 4 3 3 3 3 3 3 3 3 2 2 2 2 2 2 2 2 1 1 1 1 1 2 2 2 2 2 2 1 1 2 2 2
4 4 5 5 6 6 6 6 6 5 4 3 4 4 3 3 3 3 3 3 2 2 2 2 2 2 2 2 1 1 1 1 1 2 2 2 2 2 1 1 1 1 2
4 4 5 6 6 7 7 6 5 5 4 4 4 4 3 3 3 4 4 4 3 3 2 2 2 2 2 2 1 1 1 1 1 1 1 2 2 2 2 2 1 1 1
5 5 5 6 6 6 6 5 5 5 5 5 5 4 3 3 4 4 3 3 3 3 2 2 2 2 2 1 1 1 1 1 2 1 1 2 2 2 2 2 2 2 1
5 6 6 6 6 6 5 5 5 5 5 5 5 4 4 4 3 3 3 3 2 2 2 2 2 2 2 2 2 1 1 2 2 1 1 2 2 2 2 2 2 2 2
6 6 6 6 6 6 6 7 7 7 6 6 5 4 3 3 2 2 2 2 2 2 2 2 2 2 2 2 2 1 1 1 1 1 1 2 2 3 3 3 2 2 2
7 7 7 6 6 7 7 8 8 8 7 6 4 3 2 2 2 2 2 2 2 2 2 2 2 2 2 2 1 1 1 1 1 1 1 2 2 3 3 3 2 2 2
6 6 7 7 7 8 8 8 9 8 6 5 3 2 1 1 1 2 2 2 2 2 2 2 2 2 2 2 1 1 1 1 1 1 2 2 2 3 2 2 2 2 2
5 5 6 7 8 7 8 9 8 7 5 4 3 2 2 1 1 2 2 2 2 2 2 2 2 2 2 2 2 2 1 1 1 1 2 2 2 3 3 2 2 2 2
4 4 5 6 7 7 8 9 8 6 5 4 3 2 2 2 2 2 2 2 2 2 3 3 2 2 2 2 2 2 2 1 1 1 2 2 2 3 3 2 2 2 2
4 4 5 6 7 7 9 9 8 6 5 4 3 3 2 2 2 2 2 2 2 3 3 3 3 2 2 2 2 2 2 2 1 1 1 2 2 2 2 2 2 2 2
4 5 5 6 6 7 8 8 8 6 5 4 4 3 2 2 2 2 2 2 2 3 3 3 3 3 3 3 3 3 3 2 2 1 1 1 1 1 2 2 2 2 2
4 5 6 6 6 6 7 8 8 7 6 5 4 4 3 2 2 2 2 2 2 3 3 3 3 3 3 4 4 3 3 2 2 1 1 1 1 1 1 2 2 2 2

GEFSSE_con_maxscp_198.txt.gz
SCP
3 2 2 2 1 1 1 1 1 1 1 1 1 1 1 1 1 1 1 1 1 0 0 0 0 0 0 0 0 0 0 1 1 1 1 1 1 1 1 1 1 1 1
3 2 2 2 2 1 1 1 1 1 1 1 1 1 1 1 1 1 1 1 1 1 1 1 1 1 1 1 0 0 0 0 0 0 0 1 1 1 1 1 1 1 1
3 3 2 2 2 1 1 1 1 1 1 1 1 1 1 1 1 1 1 1 1 1 1 1 1 1 1 1 0 0 0 0 0 0 0 0 1 1 1 1 1 1 1
4 3 3 3 2 2 1 1 1 1 1 1 1 1 1 1 1 1 1 1 1 1 1 1 1 1 0 0 0 0 0 0 0 0 0 1 1 1 1 1 1 1 1
4 3 3 3 2 2 1 1 1 1 1 1 1 1 1 1 1 1 1 1 1 1 1 1 0 0 0 0 0 0 0 0 0 0 1 1 1 2 2 1 1 1 1
3 3 4 3 3 2 2 1 1 1 1 1 1 1 1 1 1 1 1 1 1 1 1 1 1 0 0 0 0 0 0 0 0 0 1 1 2 3 3 2 2 2 2
3 4 4 4 3 2 2 2 2 2 1 1 1 1 1 2 1 1 1 1 1 1 1 1 1 1 1 1 1 1 1 1 0 1 1 2 3 4 4 3 2 2 2
3 5 6 5 4 3 3 2 2 2 2 2 2 2 2 2 2 2 1 1 1 1 1 1 1 1 1 1 1 1 1 1 1 1 1 2 4 5 4 3 2 2 2
4 5 6 6 4 4 3 3 3 2 2 2 2 2 2 2 2 2 1 1 1 1 1 1 1 1 1 1 1 1 1 1 1 1 1 2 4 4 3 3 2 2 2
5 5 6 6 6 5 4 3 3 3 2 2 2 3 2 2 2 2 2 2 2 2 2 1 1 1 1 1 1 1 1 1 1 1 1 2 3 3 3 2 2 2 2
5 5 6 8 8 7 5 4 4 3 3 3 3 3 2 2 2 2 2 2 2 2 2 2 2 2 2 2 2 2 2 1 1 1 2 3 3 3 3 2 2 2 2
6 6 7 9 11 9 7 6 6 5 4 4 3 3 3 3 3 2 3 3 3 3 2 2 2 2 2 2 2 2 2 2 1 1 2 3 4 3 3 3 2 2 2
8 7 8 10 12 11 9 8 8 6 5 5 4 4 4 4 3 3 4 5 4 3 3 2 2 3 3 3 3 2 2 2 2 2 2 4 5 4 3 3 3 2 2
9 8 8 11 14 14 11 9 8 7 6 6 5 6 5 5 4 4 5 5 5 4 4 3 3 4 4 3 3 2 2 2 2 2 2 3 5 5 4 3 3 3 3
9 9 10 13 15 15 12 10 9 9 8 7 7 6 6 6 6 6 7 7 6 5 5 4 4 4 4 3 2 2 2 2 2 2 2 2 3 4 3 3 3 3 3
10 11 12 14 15 15 13 12 12 12 11 10 9 8 7 7 8 9 9 9 7 6 6 4 4 4 4 3 2 2 3 3 2 2 2 2 2 3 3 3 3 3 3
12 12 13 14 15 16 14 13 13 14 13 12 11 11 9 9 9 10 10 10 9 7 5 4 3 3 3 3 2 3 3 3 3 2 2 2 2 2 3 3 3 3 3
12 12 13 14 15 16 16 14 14 15 14 12 12 13 13 11 9 8 8 9 8 5 3 3 3 3 3 2 3 3 3 3 2 2 2 2 2 2 2 3 3 3 4
13 13 14 15 16 17 17 16 15 14 13 13 14 17 16 12 8 6 6 6 5 3 3 3 3 3 3 3 3 3 3 2 2 2 2 2 2 2 2 2 3 3 4
13 14 16 17 19 20 20 19 18 17 16 16 17 18 16 11 6 5 5 4 3 3 3 3 2 3 3 3 2 2 2 2 2 2 2 2 2 2 2 2 3 3 3
13 16 18 18 21 24 25 24 22 20 18 17 16 15 12 8 5 4 3 3 3 3 2 2 2 2 2 2 2 2 2 2 2 2 2 2 2 2 3 3 3 3 3
14 16 17 18 21 24 27 26 22 19 16 14 12 11 10 7 5 3 3 3 3 3 2 2 2 1 2 2 2 2 3 3 3 2 2 2 2 2 3 3 3 2 2
12 13 13 15 18 21 24 24 19 15 13 12 11 12 11 9 6 4 3 3 3 3 2 2 2 1 1 2 2 3 3 3 3 3 2 2 2 2 2 2 2 2 2
10 11 11 12 13 17 21 22 19 15 12 12 12 12 11 10 7 5 3 3 3 2 2 2 2 2 2 2 3 3 3 3 4 3 3 2 2 2 2 2 1 1 2
9 10 9 9 10 14 20 24 23 18 13 11 10 10 10 10 8 5 3 3 3 2 3 3 2 2 2 2 3 3 3 3 3 3 3 2 2 2 2 2 1 1 1
9 9 8 8 9 13 19 26 26 19 12 9 9 9 10 10 8 5 3 3 3 3 3 3 2 2 2 2 2 2 2 3 3 3 2 2 2 1 1 1 1 1 1

GEFSSE_con_maxscp_204.txt.gz
SCP
1 2 3 3 4 4 3 3 3 2 2 2 2 1 2 1 1 1 1 1 1 1 1 1 1 1 1 1 1 1 1 1 1 1 1 1 1 1 1 1 1 1 1
2 2 3 3 3 4 3 3 3 2 2 2 2 2 2 1 1 1 1 1 1 1 1 1 1 1 1 1 1 1 1 1 1 1 1 1 1 1 1 1 1 1 1
2 2 2 3 3 3 3 3 3 2 2 2 2 2 2 2 1 1 1 1 1 1 1 1 1 1 1 1 1 1 1 1 1 1 1 1 1 1 1 2 2 2 2
2 2 2 3 3 3 4 3 3 2 2 2 2 2 2 2 1 1 1 1 1 1 1 1 1 1 1 1 1 1 1 1 1 1 1 1 1 2 2 2 2 2 2
2 2 3 3 4 4 4 3 3 2 2 2 2 2 2 2 2 2 2 2 2 1 1 1 1 1 1 1 1 1 1 1 1 1 1 1 1 2 2 2 2 2 2
2 2 3 4 5 4 4 3 3 2 2 2 2 3 3 3 3 3 2 2 2 1 1 1 1 1 1 1 1 1 1 1 1 1 1 1 1 1 1 1 1 2 2
3 3 4 5 6 5 5 4 3 3 3 2 2 3 3 3 3 2 2 2 1 1 1 1 1 1 1 1 1 1 1 1 1 1 1 1 1 1 2 2 2 1 1
4 5 6 7 7 7 6 5 4 4 3 3 3 3 3 3 2 2 1 1 1 1 1 1 1 1 1 1 1 1 1 1 1 1 1 1 1 2 2 2 2 2 1
8 8 8 8 8 8 8 7 6 5 5 4 3 3 3 3 2 2 1 1 1 2 2 1 1 1 1 1 1 1 1 1 1 1 1 1 1 1 2 2 2 2 2
11 11 10 10 9 8 8 8 7 6 6 4 4 3 3 3 2 2 2 2 2 2 2 2 2 2 2 1 2 2 1 1 1 1 1 1 1 1 2 2 2 2 2
12 12 12 11 10 8 7 6 6 6 5 4 4 4 3 3 3 2 2 2 2 2 2 2 2 2 2 2 2 2 2 2 2 2 2 2 1 1 1 2 2 2 2
10 11 11 12 11 8 6 5 5 6 5 4 4 4 4 4 3 3 2 2 2 2 2 2 2 3 3 3 2 2 2 3 3 2 2 2 1 1 1 2 2 2 2
7 8 9 10 10 8 5 5 5 6 5 5 5 4 4 4 3 3 3 2 2 2 2 2 3 4 4 3 3 3 3 3 3 2 2 2 1 1 1 2 2 2 2
7 7 8 9 9 7 5 5 5 6 6 6 5 5 4 4 4 3 3 3 2 2 2 3 3 4 4 3 3 3 3 2 2 1 1 1 1 1 1 2 2 1 1
8 8 8 9 8 6 5 5 6 6 6 6 6 5 5 4 4 4 3 3 2 2 3 3 3 2 2 3 3 2 2 2 1 1 1 1 1 1 1 1 1 1 1
9 9 9 8 7 6 6 6 6 6 6 6 5 5 5 4 4 4 4 3 3 3 3 2 2 1 1 1 2 1 1 1 1 1 1 1 1 1 1 1 1 1 1
10 9 9 8 6 6 7 8 8 7 6 6 5 5 5 5 4 4 4 4 4 3 2 1 1 1 1 1 1 1 1 1 1 1 1 1 1 1 1 1 1 1 1
8 8 9 8 7 7 8 8 9 9 8 7 6 5 5 5 5 5 5 5 3 2 1 1 1 1 1 1 1 1 1 1 1 1 1 1 1 1 1 1 1 2 2
6 7 9 8 7 8 8 9 11 11 10 9 8 8 7 7 7 6 5 4 2 1 1 1 1 1 0 0 0 0 1 1 1 1 1 1 1 1 1 1 1 1 2
6 7 8 8 8 9 10 11 14 14 12 10 10 10 10 9 9 7 5 3 2 1 1 1 1 0 0 0 0 0 0 1 1 1 1 1 1 1 1 1 1 1 1
6 7 8 9 10 10 10 11 13 13 11 10 11 10 10 11 11 9 6 3 2 1 1 1 1 0 0 0 0 0 0 0 1 1 1 1 1 1 1 1 1 1 1
6 7 9 11 12 12 11 10 10 10 9 10 10 9 9 10 12 10 6 3 1 1 1 1 1 0 0 0 0 0 0 0 0 1 1 1 1 1 1 1 1 1 1
6 7 10 12 13 12 11 10 8 8 8 8 8 7 8 10 11 9 5 2 1 1 1 1 1 0 0 0 0 0 0 0 0 0 0 1 1 1 1 1 1 1 1
9 9 9 11 12 11 10 9 7 7 6 6 5 6 7 9 9 7 4 2 1 1 1 1 0 0 0 0 0 0 0 0 0 0 0 0 0 1 1 1 1 1 1
12 10 9 9 9 8 8 7 5 4 4 4 3 4 5 7 7 6 4 2 1 1 1 0 0 0 0 0 0 0 0 0 0 0 0 0 0 0 1 1 1 1 1
11 10 9 9 8 7 6 5 4 3 3 3 3 3 4 4 4 4 3 2 1 1 0 0 0 0 0 0 0 0 0 0 0 0 0 0 0 0 0 0 0 0 0

GEFSSE_con_maxscp_210.txt.gz
SCP
1 2 3 3 3 3 4 5 5 5 4 4 3 3 3 3 3 3 3 3 3 3 2 2 2 2 2 2 1 1 1 1 1 1 1 1 1 1 1 1 1 1 1
1 2 3 3 3 3 4 5 5 5 5 4 4 3 3 3 3 4 4 4 3 3 2 2 2 2 2 2 1 1 1 1 1 1 1 1 1 1 1 1 1 1 1
2 3 3 4 3 3 4 5 6 6 6 5 4 4 3 3 3 4 4 4 4 3 3 3 3 2 2 2 2 2 1 1 1 1 1 1 1 1 1 1 1 1 2
2 3 4 4 4 4 4 4 5 5 5 5 5 5 4 3 3 3 4 3 3 3 3 3 3 2 2 2 2 2 1 1 1 2 2 2 2 2 1 1 1 1 1
2 3 4 5 5 4 4 4 4 4 4 5 5 5 5 4 4 4 4 3 3 3 3 3 2 2 2 2 2 2 1 1 1 2 2 2 2 2 2 1 1 1 1
2 3 3 4 5 5 4 4 4 4 4 4 5 5 5 5 5 4 4 3 3 2 2 2 2 2 2 2 2 2 2 2 2 2 2 2 2 2 2 2 2 1 1
2 3 3 4 5 5 4 4 4 4 4 4 4 4 5 4 4 4 3 3 3 2 2 2 2 2 2 2 2 2 2 2 2 2 2 2 2 2 2 2 2 1 1
3 3 4 5 5 5 5 4 4 4 4 3 3 3 3 3 3 3 3 2 2 2 2 2 2 2 2 2 2 2 1 1 1 1 1 1 2 2 2 2 2 2 1
3 4 4 6 6 5 5 5 5 4 4 4 3 3 3 3 3 3 3 2 2 2 2 2 2 2 2 2 2 2 2 2 2 1 1 1 1 2 2 2 2 2 2
4 5 6 6 6 5 5 5 5 4 4 4 4 3 3 3 3 3 3 3 3 3 2 2 2 2 2 2 1 1 1 2 2 1 1 1 2 2 2 2 2 2 2
4 5 7 7 7 5 5 5 5 5 4 4 3 3 3 2 2 3 3 3 3 3 3 2 2 2 2 2 1 1 1 1 2 2 2 2 2 2 2 2 2 2 2
5 5 7 7 7 7 6 6 7 7 5 4 3 3 3 2 2 2 3 3 4 4 4 3 3 3 2 2 2 2 2 2 2 2 2 2 2 1 1 2 2 2 2
6 6 7 8 8 9 9 9 9 9 6 4 4 4 4 3 3 3 4 4 4 4 5 5 4 4 4 3 2 2 2 2 2 2 2 2 2 2 1 1 1 2 2
6 7 7 8 9 10 10 11 11 10 7 5 5 5 5 5 5 5 5 4 4 5 5 6 5 5 4 4 3 2 2 2 2 2 2 2 2 1 1 1 1 2 2
6 6 6 7 8 9 10 12 12 11 8 6 6 6 6 6 5 4 4 4 3 4 5 6 5 5 5 4 3 2 2 2 2 2 2 2 2 1 1 1 1 2 2
6 6 6 7 7 7 9 11 12 11 9 7 6 6 6 5 3 2 2 2 3 3 4 5 4 4 4 4 3 2 1 1 1 1 1 1 1 1 1 1 1 2 2
5 6 8 8 7 6 7 9 10 10 9 7 6 5 4 3 2 2 2 2 3 3 4 4 3 2 2 2 1 1 1 1 1 1 1 1 1 1 1 1 1 2 2
5 6 8 9 8 8 7 7 7 7 7 6 5 5 4 3 3 2 2 2 3 4 4 3 2 2 1 1 1 1 1 1 1 1 1 1 1 1 1 1 1 1 1
4 5 7 9 9 9 8 7 6 5 5 5 5 5 4 4 3 3 3 3 3 4 3 2 2 1 1 1 1 1 1 1 1 1 1 2 2 1 1 1 1 1 1
4 5 6 8 8 8 7 7 6 5 4 4 5 5 5 5 4 4 4 4 4 4 3 2 1 1 1 1 1 1 1 0 1 1 1 1 2 2 2 2 1 1 1
5 5 6 6 6 6 6 5 5 3 3 3 4 4 5 5 5 5 5 4 4 4 3 2 1 1 1 0 0 0 0 0 0 1 1 1 2 2 2 2 1 1 1
8 7 7 6 5 5 5 4 4 3 2 2 3 3 4 4 4 4 4 5 4 4 3 2 1 1 1 0 0 0 0 0 0 1 1 1 1 1 1 1 1 1 1
9 8 7 6 5 5 5 4 3 3 2 2 2 2 2 2 3 3 3 3 3 3 3 2 1 1 0 0 0 0 0 0 0 0 0 1 1 1 1 1 1 1 1
7 7 5 4 4 5 5 5 4 3 3 2 2 1 1 1 1 1 2 2 2 2 2 1 1 1 1 0 0 0 0 0 0 0 0 0 0 0 0 0 0 1 1
5 4 3 2 3 5 6 5 4 3 3 2 1 1 1 1 1 1 1 1 2 2 2 1 1 1 1 1 0 0 0 0 0 0 0 0 0 0 0 0 0 1 1
3 2 2 2 3 5 6 6 4 3 3 2 1 1 0 0 0 0 1 1 2 2 1 1 1 1 1 1 0 0 0 0 0 0 0 0 0 0 0 0 0 0 0

GEFSSE_con_maxscp_216.txt.gz
SCP
3 4 5 5 4 3 2 2 1 2 2 2 2 2 2 2 2 2 2 2 2 2 2 2 2 2 2 2 1 1 1 1 1 1 1 1 1 1 2 2 1 1 1
3 4 5 5 4 3 2 2 2 2 2 2 3 3 3 3 2 2 2 2 2 2 2 2 2 2 2 2 2 1 1 1 1 1 1 1 1 1 2 2 2 2 2
2 3 5 5 4 4 3 3 2 2 2 2 3 3 3 3 3 3 3 3 3 3 3 2 2 2 2 2 2 2 2 2 2 2 2 1 1 1 2 2 2 2 2
2 3 4 5 4 4 4 4 3 3 2 2 2 2 3 3 3 3 3 3 3 3 3 3 3 3 3 2 2 2 2 2 2 2 2 1 1 2 2 2 2 2 2
2 3 4 5 4 4 4 4 4 3 3 2 2 2 2 2 2 2 2 2 3 3 4 4 3 3 3 3 3 2 2 2 1 1 1 1 2 2 2 2 2 2 2
2 3 4 5 4 4 4 4 3 3 3 3 3 3 2 2 2 2 2 2 2 3 3 4 4 4 4 3 3 3 2 2 1 1 1 1 2 2 2 2 2 2 2
3 3 4 5 5 4 4 3 3 3 3 3 3 3 3 3 2 2 2 2 2 2 3 4 4 4 4 4 3 3 2 2 1 1 1 1 2 2 2 2 2 2 2
3 3 4 5 5 4 4 4 3 3 3 3 3 3 3 3 3 3 3 3 3 2 2 3 3 4 4 4 3 3 2 2 1 1 1 1 2 2 2 2 2 2 2
3 4 5 5 4 4 4 4 3 4 4 4 4 4 4 4 3 3 3 3 3 3 2 3 3 3 3 4 3 3 2 2 1 1 1 1 2 2 2 2 2 2 2
3 5 6 6 5 3 3 3 3 4 5 5 5 5 5 4 3 3 3 3 3 3 3 3 3 3 3 3 3 3 2 2 2 1 1 2 2 2 2 2 2 2 2
4 5 7 8 6 4 3 3 3 3 4 5 5 5 5 4 3 3 3 3 3 3 3 3 4 3 3 3 3 3 3 2 2 2 2 2 3 2 2 2 2 2 2
5 5 7 9 7 5 4 4 3 3 4 4 4 4 4 4 4 3 3 3 3 3 3 4 4 4 3 3 3 3 3 3 2 2 2 3 3 3 2 2 2 2 2
4 5 7 8 8 7 5 5 4 4 4 4 4 4 4 4 4 4 4 4 3 3 4 5 5 4 4 4 4 3 3 3 3 2 2 3 3 3 2 2 2 2 3
4 5 6 7 8 8 7 6 5 4 4 4 5 5 5 5 5 5 5 4 3 3 4 5 5 5 5 5 4 3 3 3 3 2 3 3 3 2 2 2 2 3 3
3 4 5 6 8 9 9 8 6 5 5 5 6 7 6 6 6 6 5 4 4 4 4 5 6 6 7 6 5 3 2 2 2 2 3 3 2 2 2 2 2 2 2
3 3 5 6 8 9 10 10 8 6 6 7 8 8 6 5 5 5 5 5 4 4 5 6 7 7 7 6 4 3 3 2 2 2 2 2 2 2 2 2 2 2 1
3 4 5 7 7 8 9 10 9 8 8 9 9 8 6 5 5 5 5 5 5 6 8 8 8 8 7 5 4 3 3 2 2 2 2 2 2 1 1 1 1 1 1
4 4 5 6 6 6 7 8 8 9 9 10 10 8 6 5 5 5 6 6 7 8 9 10 10 9 7 5 5 4 4 3 2 2 2 2 2 2 1 1 2 2 2
5 5 5 5 5 5 5 6 8 8 8 8 8 8 6 6 5 5 6 6 7 8 9 10 11 10 8 6 5 5 4 2 2 2 2 2 2 2 2 2 2 2 2
6 6 5 4 4 4 5 6 7 7 7 7 7 6 6 6 5 5 5 6 6 7 8 9 10 9 7 6 5 4 3 2 2 2 2 2 2 2 2 2 2 2 2
5 6 6 6 5 5 6 7 7 7 6 6 5 4 5 5 5 4 5 5 5 6 6 7 7 7 6 5 4 3 2 2 2 2 2 2 2 2 2 2 3 2 2
4 5 6 7 6 6 6 6 7 6 6 5 4 4 4 5 4 4 4 4 4 4 4 5 5 5 4 5 4 3 2 2 2 2 2 2 2 2 2 2 2 3 2
4 4 5 5 5 5 5 5 6 6 6 5 4 3 3 4 4 4 3 3 3 3 3 3 4 4 4 5 5 4 2 2 2 2 3 3 2 2 2 2 2 2 2
5 5 4 4 4 4 4 4 5 6 7 6 5 4 3 3 3 3 3 3 2 2 2 2 3 3 4 4 5 4 3 2 2 2 3 3 2 2 2 2 2 2 3
6 5 4 4 4 4 4 4 5 5 7 7 6 4 3 2 2 2 2 2 2 2 2 2 3 3 3 4 4 4 4 3 3 2 2 2 2 2 2 2 2 2 3
6 5 4 4 5 5 4 5 5 5 6 7 5 4 3 2 2 2 2 2 2 2 2 2 2 3 3 3 4 4 4 3 3 2 2 2 2 2 2 2 2 2 2

GEFSSE_con_maxscp_222.txt.gz
SCP
5 5 5 4 3 3 2 2 1 1 1 1 1 1 1 1 1 1 1 1 1 2 2 2 1 1 1 1 1 1 1 1 2 2 2 2 2 2 2 2 2 2 2
5 5 4 4 3 2 2 2 1 1 1 1 1 1 1 1 1 1 1 1 1 2 2 2 1 1 1 1 1 1 1 2 2 2 2 2 2 2 2 2 2 2 2
5 5 4 4 3 2 2 2 2 1 1 1 1 1 1 1 1 1 1 1 1 1 2 2 1 1 1 1 1 1 1 2 2 2 2 2 1 2 2 2 2 2 2
7 6 5 5 4 3 2 2 2 2 1 1 1 1 1 1 1 1 1 1 1 1 1 1 2 2 2 1 1 1 2 2 2 2 2 2 2 2 2 2 2 2 2
9 8 6 6 5 4 3 2 2 2 2 1 1 1 1 1 1 1 1 1 1 1 1 1 1 2 2 2 1 1 2 2 2 2 2 2 2 2 2 2 2 2 2
6 6 5 5 5 4 3 3 3 3 2 2 1 1 1 1 1 1 1 1 1 1 1 1 2 2 2 2 2 2 2 2 2 1 1 2 2 2 2 2 2 2 2
3 4 5 5 4 4 4 3 3 3 3 2 2 2 1 1 1 1 1 1 2 2 2 2 2 2 2 2 2 2 2 2 2 1 1 2 2 3 3 2 2 2 2
4 5 5 5 4 4 4 4 3 3 3 2 2 2 2 2 2 2 2 2 2 2 2 2 2 2 2 2 2 2 2 2 2 2 2 2 3 4 4 3 3 3 3
4 5 7 6 5 4 4 4 4 3 3 3 3 3 3 2 2 2 2 2 2 2 2 2 2 2 2 2 2 2 2 3 3 2 2 2 4 5 5 3 3 3 3
4 5 7 7 6 5 5 4 4 4 4 3 3 3 3 3 2 2 2 2 2 2 2 3 3 2 2 2 2 2 3 3 3 2 2 3 5 6 5 4 3 3 3
4 5 7 8 7 6 5 5 5 5 5 5 5 4 4 3 3 3 3 3 3 3 3 3 3 3 3 2 3 3 3 2 2 2 2 3 6 7 6 5 4 3 3
5 5 7 9 9 7 6 5 5 5 6 7 7 7 6 6 5 4 4 5 4 4 4 4 4 4 3 3 3 3 3 2 2 2 2 4 6 6 6 5 4 3 3
7 8 9 10 11 9 7 6 6 6 6 7 9 10 10 9 7 6 6 7 6 5 5 5 5 5 4 3 3 3 3 3 3 3 3 5 5 5 5 5 4 3 3
9 10 11 13 13 12 11 9 7 6 6 7 8 11 12 11 9 8 8 8 8 7 7 7 6 6 5 4 4 4 4 4 4 4 4 5 5 5 5 5 4 3 3
9 10 12 14 15 14 16 15 12 9 8 7 7 10 11 11 10 9 9 9 8 8 8 8 7 7 6 6 6 5 6 5 5 4 4 5 5 5 5 4 4 3 3
9 10 11 11 13 15 17 18 16 13 11 8 8 8 9 10 9 9 9 8 7 8 8 8 7 7 8 8 8 7 6 6 5 4 5 5 4 4 4 4 3 3 3
8 9 8 7 9 11 13 14 14 12 9 8 9 10 10 10 10 10 8 7 6 6 6 6 7 7 7 8 9 8 6 5 4 4 4 4 3 3 3 3 3 3 3
8 8 7 6 6 7 8 9 8 7 6 6 8 10 12 12 11 9 7 6 6 6 5 6 6 6 6 7 8 8 6 5 4 4 4 3 3 3 3 3 3 3 3
7 6 6 5 5 5 5 5 5 5 5 5 6 8 10 11 10 8 6 5 5 5 5 5 6 6 5 5 6 6 6 5 5 4 4 3 3 3 3 3 3 3 3
5 5 5 5 5 5 5 5 5 5 5 5 5 6 7 7 7 6 5 5 4 4 4 4 5 5 5 5 5 4 4 5 5 4 4 3 3 3 3 3 3 3 2
4 5 5 5 5 6 6 5 5 5 5 6 6 5 5 5 5 5 4 4 4 4 4 4 4 4 4 5 4 4 3 4 4 4 4 3 3 3 4 4 4 3 3
4 5 6 6 6 6 6 6 6 6 6 6 6 6 5 5 5 4 4 4 4 3 3 4 4 4 3 4 4 4 3 3 3 3 3 3 3 3 4 4 4 4 4
5 6 7 8 7 7 7 7 7 7 7 7 7 7 6 5 5 4 4 4 4 3 3 4 4 3 2 3 3 3 3 3 3 3 3 3 3 3 4 4 4 4 4
8 8 9 9 9 7 6 6 6 7 8 9 9 9 8 6 5 4 4 4 4 3 3 3 3 2 2 2 2 2 3 3 2 2 2 2 3 3 3 4 4 5 5
8 9 9 9 8 6 5 5 6 8 8 8 9 9 8 7 6 5 5 5 5 4 3 2 2 2 2 1 1 2 2 2 2 2 1 1 2 2 2 3 4 5 5
7 7 8 7 6 5 4 5 7 8 8 7 8 8 8 7 6 5 5 6 5 4 3 2 3 3 2 2 1 1 1 2 2 2 1 1 1 1 2 3 3 4 5

GEFSSE_con_maxscp_228.txt.gz
SCP
1 1 2 3 2 2 2 2 2 2 1 2 2 2 2 3 2 2 2 2 2 2 2 2 1 1 2 2 2 2 2 1 1 1 1 1 1 1 2 2 1 1 1
1 1 2 3 2 2 2 2 2 2 2 2 2 2 3 3 2 2 2 2 2 2 2 1 1 1 2 2 2 2 2 2 2 2 2 1 1 2 2 2 2 2 2
1 1 2 2 3 2 2 2 2 2 2 2 2 2 3 2 2 2 2 2 2 2 1 1 1 1 1 2 2 2 2 2 2 2 2 2 2 2 2 3 3 3 3
1 1 2 2 3 3 3 3 2 2 2 2 2 2 2 2 2 2 2 2 1 1 1 1 1 1 1 1 2 2 2 2 2 2 2 2 2 2 2 3 3 3 3
1 1 2 3 3 3 3 3 3 2 2 2 2 2 2 2 2 2 2 2 1 1 1 1 1 2 2 2 1 1 1 1 1 2 2 2 2 2 2 3 3 3 3
1 1 2 3 3 3 3 3 3 3 3 3 2 2 2 2 3 2 2 2 2 2 1 1 2 2 2 2 2 2 1 1 1 2 2 1 1 2 2 3 3 3 3
1 1 2 3 3 3 3 3 3 4 4 3 3 2 2 2 2 2 2 2 2 2 2 2 2 2 2 2 2 2 2 1 1 2 2 2 1 2 2 3 3 3 3
2 2 2 3 3 3 3 4 4 4 4 4 3 3 2 2 2 2 2 2 2 2 2 2 2 2 2 2 2 2 2 2 2 2 2 2 2 2 2 2 3 3 3
2 2 3 3 3 3 3 4 5 5 5 4 3 3 3 3 3 3 3 2 2 2 2 2 2 2 2 2 2 2 2 2 2 2 2 2 2 2 2 2 3 3 3
3 3 3 3 3 3 3 4 5 5 6 5 5 4 3 3 4 4 4 3 3 2 2 2 2 2 2 2 2 2 2 2 2 2 2 2 2 2 2 3 3 3 3
3 3 3 3 3 3 4 4 5 6 7 7 6 5 5 4 4 4 4 4 4 3 3 2 2 2 2 2 2 2 2 2 2 2 2 2 2 2 2 3 3 3 3
2 2 3 3 3 3 4 5 6 7 7 7 7 7 7 6 6 5 5 5 5 4 3 3 3 3 3 3 3 3 3 3 3 3 3 3 2 2 3 3 3 3 3
2 2 3 3 3 4 4 5 7 6 6 7 8 8 9 8 7 7 6 6 5 4 4 3 3 3 3 3 3 3 3 3 3 3 3 3 3 3 3 4 4 3 3
2 2 2 3 3 4 4 5 6 6 6 7 8 8 9 10 9 8 7 7 6 5 4 4 4 3 3 3 3 4 4 3 3 3 2 3 3 4 4 5 5 3 3
4 4 3 3 3 4 4 4 5 6 7 7 7 7 7 9 9 8 8 7 7 6 6 5 4 3 3 3 3 3 4 4 3 2 2 3 3 4 5 5 5 4 3
6 5 4 4 4 4 3 3 4 6 6 5 5 5 6 6 7 7 7 7 7 7 6 5 4 3 3 3 3 3 3 4 3 2 2 3 3 4 4 4 4 3 3
6 6 5 4 4 3 2 2 3 4 4 4 4 5 5 4 5 6 6 6 6 6 5 5 4 4 3 3 2 2 2 3 3 2 2 2 2 3 3 3 3 3 3
5 5 4 4 3 2 1 1 2 2 3 4 5 4 4 3 3 4 5 5 5 4 4 4 4 4 3 3 2 2 2 2 2 2 2 2 2 2 2 2 2 2 2
4 3 3 2 2 1 1 1 2 2 3 4 4 4 3 3 3 3 4 5 5 4 3 4 4 4 3 2 2 2 1 2 2 2 2 2 2 2 2 2 2 2 2
2 2 2 1 1 1 1 2 2 2 2 3 3 3 2 2 2 3 3 4 4 4 3 3 3 3 2 2 1 1 1 1 1 2 2 2 2 2 2 2 2 2 2
2 2 2 1 1 1 2 2 2 1 2 2 3 2 2 1 2 2 2 3 3 3 3 3 3 2 2 1 1 1 0 0 1 1 1 2 2 2 1 1 2 2 2
2 2 2 2 2 2 2 2 2 1 1 2 3 3 2 2 2 2 2 3 3 3 3 3 2 2 1 1 1 1 0 0 0 1 1 1 1 2 2 2 2 2 2
2 3 3 2 2 2 2 2 2 1 2 2 3 3 2 2 2 3 3 3 3 3 3 2 2 2 1 1 1 0 0 0 0 0 1 1 1 1 2 2 2 2 2
3 2 2 2 2 2 2 2 2 2 2 2 2 2 2 2 2 3 3 3 3 3 2 2 2 1 1 1 0 0 0 0 0 0 0 0 1 1 1 1 2 2 2
3 2 2 2 2 2 2 2 2 2 2 2 2 2 2 2 2 2 3 3 3 3 2 2 1 1 1 1 0 0 0 0 0 0 0 0 0 0 1 1 1 1 2
2 2 2 2 2 2 2 2 2 2 2 2 2 2 2 2 2 2 3 3 3 2 2 2 1 1 1 1 0 0 0 0 0 0 0 0 0 0 0 0 1 1 1

GEFSSE_con_maxscp_234.txt.gz
SCP
1 2 3 3 2 2 3 3 3 3 3 2 2 2 2 2 2 2 2 2 2 2 1 1 1 1 1 1 1 1 1 1 1 1 1 1 1 2 2 1 1 1 1
1 2 3 2 2 2 3 3 3 3 3 3 2 2 2 3 3 2 2 2 2 2 2 1 1 1 1 1 1 1 1 1 1 1 1 1 1 2 2 2 2 2 2
2 2 3 2 2 2 2 3 3 3 3 3 3 3 3 3 3 3 2 2 2 2 2 2 1 1 1 1 1 1 1 1 1 1 1 2 2 2 2 2 2 2 2
3 3 3 3 2 2 2 2 2 2 2 3 3 3 3 3 3 3 3 2 2 2 2 2 2 1 1 2 2 2 1 1 1 1 2 2 2 2 2 2 3 3 3
3 4 4 3 2 2 2 2 2 2 2 2 3 3 3 3 3 3 3 3 2 2 2 2 2 2 2 2 2 2 2 2 1 2 2 2 2 2 2 3 3 3 3
3 3 4 3 2 2 2 2 3 3 3 3 3 3 3 3 3 3 3 3 2 2 2 2 2 2 2 2 2 2 2 2 2 2 2 2 3 3 3 3 3 3 3
2 3 3 3 3 2 2 2 3 3 4 4 4 4 4 4 3 3 3 3 2 2 2 2 2 2 2 2 2 2 2 2 2 2 3 3 3 3 3 3 3 3 3
2 2 3 3 3 3 3 2 2 3 4 5 6 6 6 5 4 3 3 3 3 3 2 2 2 2 2 2 2 2 2 2 2 3 3 3 3 3 3 3 3 3 3
2 2 3 3 4 5 4 3 2 3 4 5 6 7 6 6 4 3 3 3 3 3 3 2 2 2 2 2 2 2 2 2 2 3 3 3 3 3 3 3 3 3 3
3 3 2 3 4 5 6 5 4 3 3 5 6 6 6 5 4 3 3 3 4 4 4 3 3 3 2 2 2 2 2 2 3 3 3 3 3 2 2 2 2 3 3
3 3 2 2 3 5 6 6 5 4 4 4 5 5 5 4 4 4 4 4 4 4 4 4 4 4 3 3 2 2 2 3 3 3 3 3 2 2 2 2 2 2 2
2 2 2 2 2 3 5 6 7 6 5 4 4 4 4 4 4 5 5 5 5 5 5 5 6 5 5 4 4 3 3 3 3 2 2 2 2 2 2 2 2 2 2
2 2 2 1 1 2 4 6 7 7 6 4 3 3 3 3 3 4 5 6 6 6 6 7 7 7 7 6 5 5 4 3 3 2 2 2 2 2 2 2 2 2 2
2 2 1 1 1 1 2 5 6 7 7 6 4 3 3 3 3 3 5 6 7 7 8 9 9 9 9 8 6 6 5 4 3 3 2 2 2 2 2 2 2 3 2
2 2 1 1 1 1 2 3 4 5 6 7 6 4 3 3 2 3 3 4 6 7 8 9 10 11 11 10 8 7 6 5 4 3 3 2 2 2 2 2 2 2 2
2 2 1 1 1 1 2 2 2 3 4 5 5 4 3 3 3 2 2 3 4 5 6 7 8 10 11 11 10 8 6 5 5 4 3 2 2 2 2 2 2 2 2
3 2 2 2 2 2 1 1 1 2 2 3 3 4 4 4 3 3 2 2 2 3 4 5 6 8 9 10 9 8 6 5 4 4 3 3 2 2 2 2 2 2 2
3 3 2 2 2 1 1 1 1 1 1 1 2 3 4 4 4 3 2 2 2 3 3 3 4 5 6 6 6 6 5 5 4 3 3 3 3 2 2 2 2 2 2
3 3 3 2 1 1 1 0 0 1 1 1 1 2 3 4 4 3 2 2 3 3 3 2 2 3 3 4 4 4 5 5 4 3 3 3 3 2 2 2 2 2 2
3 3 3 2 1 1 1 1 1 1 1 1 1 2 3 4 4 3 2 2 3 3 2 2 2 2 2 2 2 3 4 5 5 4 3 3 3 2 2 2 2 2 2
3 3 2 1 1 1 1 1 1 1 1 1 1 1 2 3 3 3 2 2 2 2 2 2 2 2 2 2 2 3 3 4 4 4 2 2 2 2 2 2 2 2 2
3 2 2 1 1 1 1 1 1 1 1 1 1 1 2 2 3 2 2 2 2 1 1 1 2 2 2 2 2 2 2 2 3 2 2 1 1 1 2 2 2 2 2
2 2 2 1 1 1 1 1 1 1 1 1 1 1 1 2 2 2 2 1 1 1 1 1 1 1 1 2 2 2 1 1 1 1 1 1 1 1 1 1 2 2 2
2 2 1 1 1 1 1 1 1 1 1 1 1 1 1 1 1 1 1 1 2 2 2 2 1 1 1 2 2 2 1 1 1 1 1 1 1 1 1 1 1 2 2
2 1 1 1 1 1 1 1 2 1 1 2 1 1 1 1 1 1 1 1 1 2 2 2 1 1 2 2 2 1 1 1 1 1 1 1 1 1 0 0 1 1 1
1 1 1 1 1 1 1 1 1 1 1 1 1 1 1 0 0 0 1 1 1 1 1 1 1 2 2 2 2 1 1 0 0 1 1 1 1 0 0 0 0 1 1

GEFSSE_con_maxscp_240.txt.gz
SCP
1 1 2 2 2 2 2 2 2 2 2 3 2 2 2 2 2 2 2 2 2 2 2 2 2 2 2 2 2 2 2 2 3 3 2 2 2 2 2 1 1 1 1
1 2 2 2 2 2 2 2 2 2 2 3 3 3 3 3 3 2 2 2 2 2 3 3 2 2 2 2 2 2 2 2 2 2 2 2 2 2 2 2 2 1 2
1 2 2 2 2 2 2 1 2 2 2 2 3 3 3 3 3 3 3 3 3 3 3 3 3 2 2 2 2 2 2 2 2 2 2 2 2 2 2 2 2 2 2
1 2 3 3 2 2 2 2 2 2 2 2 2 3 3 3 3 3 3 3 3 3 3 3 3 3 2 2 2 2 2 2 2 2 2 2 2 2 2 3 3 3 3
2 2 3 3 3 3 2 2 2 2 2 2 2 3 3 3 3 3 3 3 3 3 3 3 3 3 3 3 3 2 2 2 2 1 2 2 2 2 3 3 3 3 3
4 4 4 4 3 3 3 3 3 3 2 2 3 3 3 3 3 4 3 3 3 3 3 3 3 3 3 3 3 3 3 2 2 1 1 2 2 3 3 3 3 3 3
5 5 4 4 4 4 4 4 3 3 3 2 3 3 3 3 4 4 4 4 4 4 4 3 3 3 3 3 3 3 3 3 2 1 1 2 2 3 3 3 3 3 3
5 5 4 4 4 4 4 4 4 4 4 3 3 3 3 3 4 4 4 4 4 4 4 4 3 3 3 3 3 3 3 3 3 2 2 2 2 3 3 3 3 3 3
5 4 4 4 4 4 4 4 4 5 4 3 3 3 3 3 3 3 3 4 4 4 4 3 3 3 3 3 3 3 3 3 3 3 2 2 3 3 3 3 3 3 3
4 4 4 4 4 4 4 4 5 5 5 4 3 3 3 3 3 3 3 3 3 3 3 3 3 3 3 3 3 3 3 3 3 4 3 3 3 3 3 3 3 3 3
4 4 4 4 4 4 4 4 4 5 5 5 4 3 3 3 3 3 3 3 3 2 3 3 3 3 3 4 3 3 3 3 3 4 5 5 4 4 3 3 3 3 4
4 4 4 4 3 3 4 4 4 4 5 4 4 4 4 4 3 3 3 3 3 2 2 3 3 3 4 4 4 4 4 3 4 4 5 6 5 5 4 4 3 4 4
3 4 3 3 3 4 4 3 3 3 4 4 4 4 4 4 4 3 3 3 3 3 3 3 3 3 4 4 5 5 4 4 4 5 5 6 6 6 5 5 4 4 4
3 3 3 3 3 4 4 3 3 3 3 3 4 5 5 5 4 4 4 3 3 3 3 3 3 3 4 4 5 5 5 5 5 5 5 5 6 6 5 5 5 4 4
3 3 3 3 4 4 4 3 2 2 3 4 4 5 6 6 6 5 4 4 3 3 3 2 2 2 3 4 4 5 5 5 5 5 5 5 6 6 5 5 5 4 4
2 2 3 3 4 4 4 3 2 2 3 4 5 5 6 7 7 6 5 4 3 2 2 2 2 2 2 2 3 4 4 5 5 5 5 5 6 6 6 5 4 4 4
2 2 2 3 4 4 4 3 3 2 3 4 4 5 6 7 7 7 5 4 3 2 2 2 2 2 2 2 2 2 3 4 5 5 5 5 5 6 6 5 5 4 4
2 2 3 3 4 4 4 4 3 3 3 4 4 5 5 5 6 6 4 3 3 2 2 2 2 2 2 1 1 1 2 3 4 5 5 5 5 5 5 5 5 4 4
2 2 3 3 4 4 4 4 4 3 3 3 4 4 4 4 4 4 3 3 2 2 2 2 2 2 2 1 1 1 1 1 2 3 4 5 5 5 5 4 4 3 3
2 2 3 3 4 4 4 4 3 3 3 3 3 3 3 3 3 3 3 2 2 2 2 2 2 2 2 2 1 1 1 1 1 2 3 4 4 4 4 3 3 2 2
2 2 3 3 4 4 4 3 3 3 2 2 2 2 2 2 2 2 2 2 2 2 2 2 2 2 2 2 1 1 1 1 1 1 2 2 3 3 2 2 2 2 2
2 2 3 3 4 4 3 3 3 2 2 2 1 1 1 1 1 2 2 2 2 2 2 2 2 2 2 2 2 2 1 1 1 1 1 2 2 2 2 2 2 2 2
2 2 2 3 4 3 3 3 3 3 2 2 1 1 1 1 1 2 2 2 2 2 2 2 2 2 3 3 3 3 2 1 1 1 1 1 2 2 2 2 2 3 2
2 2 3 3 3 3 3 3 3 2 2 2 2 2 2 2 2 2 2 2 2 2 2 2 2 2 2 3 4 4 3 2 2 1 1 1 2 2 2 2 3 3 3
2 2 3 3 3 3 3 3 2 2 2 2 2 2 2 2 2 2 2 2 2 2 2 2 2 2 2 2 3 3 3 2 2 2 2 2 2 3 3 3 3 3 3
2 3 2 2 3 3 3 2 2 2 2 2 2 3 3 3 2 2 2 2 2 2 2 2 2 2 1 1 2 3 3 3 3 2 2 2 3 3 3 3 4 4 3

GEFSSE_con_maxscp_246.txt.gz
SCP
4 3 3 2 2 1 1 1 1 1 1 1 1 1 1 2 2 2 3 3 3 3 3 3 3 3 2 2 2 1 1 1 1 2 2 2 3 4 4 4 4 4 4
4 4 3 2 2 2 2 1 1 1 2 1 1 1 1 2 2 2 3 3 3 3 3 3 3 3 2 2 2 2 2 2 1 1 1 2 3 4 4 4 4 4 4
4 4 3 2 2 2 2 2 1 1 1 1 1 1 1 1 2 2 2 2 3 3 3 3 3 3 2 2 2 2 2 2 2 1 1 1 2 3 4 4 4 4 4
4 4 3 3 2 2 2 2 2 1 1 1 1 1 1 1 2 2 2 2 2 3 3 3 3 2 2 2 2 2 2 2 2 1 1 1 2 2 3 3 3 3 3
4 4 4 4 3 2 2 2 2 2 1 1 1 1 1 1 2 2 2 2 2 3 3 3 3 2 2 2 2 2 2 2 2 1 1 1 2 2 3 3 2 3 3
4 5 5 5 3 3 2 2 2 2 2 2 2 2 2 2 2 2 2 2 3 3 2 2 3 3 2 2 2 2 2 2 2 2 1 2 2 2 3 2 2 2 2
7 7 7 5 4 3 2 2 2 2 2 2 3 3 2 2 2 2 2 2 2 2 2 2 2 2 2 2 2 2 2 2 2 2 2 2 2 3 3 2 2 2 2
8 7 6 5 4 4 3 3 3 3 3 3 3 3 3 2 2 2 2 2 2 2 2 2 2 2 2 2 2 2 2 2 2 2 2 2 2 3 3 3 3 2 2
8 7 5 4 4 4 4 3 3 3 3 3 3 3 3 3 2 2 2 2 2 2 2 2 2 2 2 2 2 2 2 2 2 2 2 2 3 3 4 3 3 2 2
9 8 5 3 3 3 3 3 3 4 4 3 4 4 4 3 3 3 2 2 2 2 2 2 2 2 2 2 2 2 3 3 2 2 3 3 3 4 4 4 3 3 2
9 9 6 3 3 3 3 3 4 4 4 4 4 4 4 4 4 3 3 3 2 2 2 2 2 2 2 2 2 2 3 3 3 3 3 3 3 4 4 4 4 3 3
7 7 5 3 3 3 3 3 3 4 4 4 4 4 5 5 4 3 3 3 3 2 2 2 2 2 2 2 2 2 3 3 4 3 3 3 3 4 4 4 5 4 3
4 4 4 4 4 4 4 4 4 4 4 5 5 5 5 4 4 3 3 3 3 3 3 2 2 2 2 2 2 2 2 3 4 4 3 3 4 4 4 4 5 4 4
4 5 6 6 5 5 5 5 4 4 4 4 5 5 5 5 4 4 4 4 4 3 2 2 2 2 1 1 1 1 2 3 3 3 3 4 4 4 4 4 4 5 4
6 8 9 7 5 5 5 5 5 5 5 5 5 5 5 5 5 5 5 4 4 3 2 2 2 1 1 1 1 1 1 2 2 2 3 3 4 5 4 4 5 6 6
9 11 12 9 6 6 5 5 6 6 5 5 5 6 6 6 6 6 5 5 4 3 2 2 2 2 1 1 1 1 1 1 1 1 2 2 3 5 5 5 6 7 8
8 10 10 8 7 7 6 6 6 5 5 5 6 6 6 6 6 6 5 5 4 3 3 2 2 2 2 1 1 1 1 1 1 1 1 1 2 4 5 5 6 8 9
7 8 8 6 6 7 7 8 7 5 4 5 6 6 7 7 7 6 5 4 4 4 4 3 2 2 2 1 1 1 1 1 1 1 1 1 1 2 3 4 5 7 9
6 7 6 5 5 7 9 10 8 6 5 5 5 6 7 7 6 5 5 4 5 5 4 4 3 2 2 1 1 1 1 1 1 1 1 1 1 2 2 3 4 5 6
6 6 6 6 7 9 11 11 9 7 5 5 6 7 7 6 5 5 4 4 5 5 5 4 4 3 2 2 1 1 1 1 1 1 2 2 2 2 2 2 3 3 3
6 7 8 8 8 10 11 10 8 6 5 5 7 8 8 6 5 4 4 4 5 5 4 4 4 3 3 2 2 2 2 1 1 1 2 2 2 2 2 2 2 3 3
5 6 7 8 9 10 10 9 7 6 6 7 7 8 7 6 4 4 4 4 4 4 4 4 5 4 3 2 2 2 2 1 1 1 2 2 2 2 2 2 2 2 3
5 5 6 8 8 9 9 8 8 9 9 8 7 6 5 4 3 3 3 3 4 4 3 4 4 3 3 2 2 2 2 2 1 1 1 1 2 2 2 2 2 2 3
6 6 7 8 8 8 8 9 10 11 10 8 6 4 3 3 2 2 3 3 3 3 3 3 2 2 2 1 1 1 2 2 1 1 1 1 1 1 1 2 2 2 2
6 6 7 9 9 9 8 9 10 9 7 6 4 4 3 3 2 2 2 2 2 3 2 2 2 2 1 1 1 1 1 1 1 1 1 1 1 1 1 2 2 3 3
6 6 8 10 11 11 9 9 8 6 5 4 4 3 3 2 2 2 2 2 2 2 2 2 1 1 1 1 1 1 1 1 1 1 1 1 1 2 2 2 2 3 3